User: anonymous   Login
Location: Unspecified
(0.0000°N, 0.0000°E)
Time: 20:40:38
(UTC+00:00)
Language:

GONETS D1M 1 - Orbit

View from above orbital plane
View from above orbital plane
View from above satellite
View from above satellite

Ground track
Ground track

The orbit data is extracted from the following two-line orbital elements,

1 28908U 05048A   17172.65857809 +.00000030 +00000-0 +12256-3 0  9992
2 28908 082.4690 246.4620 0005691 298.6137 214.5933 12.55477468526974
Epoch (UTC): 21 June 2017 15:48:21
Eccentricity: 0.0005691
inclination: 82.4690°
perigee height: 1437 km
apogee height: 1446 km
right ascension of ascending node: 246.4620°
argument of perigee: 298.6137°
revolutions per day: 12.55477468
mean anomaly at epoch: 214.5933°
orbit number at epoch: 52697

The dashed part of the orbit path shows where the satellite is in the earth's shadow,  

DLR